[[{"header":{"parameterUnit":"m.s-1","parameterCategory":1,"la1":30.2991,"la2":30.254,"lo1":-89.0895,"lo2":-89.0444,"dy":0.0017,"dx":0.0017,"nx":28,"ny":28,"refTime":"2025-07-18T21:00:00:Z","depth":0,"parameterNumber":2,"parameterNumberName":"U-component_of_WINDS"},"data":[0,0,0,0,0,0,0,0,0,0,0,0,0,0,0,0,0,0,0,0,0,0,0,0,0,0,0,0,0,0,0,0,0,0,0,0,0,0,0,0,0,0,0,0,0,0,0,0,0,0,0,0,0,0,0,0,0,0,1.8426,1.8427,0,1.8602,1.8604,1.8606,1.8643,1.8642,1.864,1.8639,1.8827,1.8833,1.8839,0,0,0,0,0,0,0,0,0,0,0,0,0,1.8125,1.813,1.8425,1.8428,1.843,1.8601,1.8604,1.8606,1.8643,1.8641,1.864,1.8638,1.8825,1.8832,1.8839,0,0,0,0,0,0,0,0,0,0,0,0,0,1.8274,1.8132,1.8425,1.8469,1.8474,1.8601,1.8604,1.8607,1.8643,1.8641,1.8639,1.8638,1.8822,1.8831,1.884,1.8938,0,0,1.8869,1.8873,0,0,0,0,0,0,0,0,1.8265,1.8285,1.846,1.8466,1.8472,1.8598,1.8567,1.8718,1.8644,1.8579,1.8639,1.8637,1.8753,1.8768,1.8805,1.8947,1.8955,1.887,1.8876,1.888,1.8882,0,0,0,0,0,0,0,1.8255,1.8278,1.8495,1.8463,1.847,1.8481,1.85,1.8596,1.8675,1.8585,1.8588,1.8608,1.8756,1.8796,1.881,1.8958,1.887,1.8878,1.8884,1.8887,1.9185,1.9187,0,0,0,0,0,0,1.8236,1.8269,1.849,1.8501,1.8362,1.8488,1.8509,1.856,1.8674,1.869,1.8609,1.8609,1.8781,1.8799,1.8817,1.8935,1.8879,1.8888,1.8894,1.9182,1.9185,1.9188,0,0,0,0,0,0,1.823,1.8256,1.8483,1.8386,1.8415,1.8495,1.8552,1.8564,1.8605,1.8693,1.8708,1.8636,1.878,1.8804,1.8906,1.8943,1.8892,1.8901,1.918,1.9183,1.9186,1.9175,0,0,0,0,0,0,1.8221,1.8253,1.829,1.8386,1.842,1.8568,1.8554,1.8569,1.862,1.8621,1.8721,1.8736,1.8781,1.8892,1.8915,1.8955,1.8908,1.9177,1.9181,1.9185,1.9173,1.9178,1.9182,0,0,0,0,0,1.821,1.8283,1.8292,1.8318,1.8468,1.857,1.859,1.8637,1.8623,1.8661,1.8717,1.8733,1.8935,1.8902,1.8929,1.8971,1.9175,1.918,1.9185,1.9171,1.9177,1.9182,0,0,0,0,0,0,1.8193,1.8296,1.8308,1.8413,1.8482,1.8576,1.8626,1.8643,1.8719,1.8717,1.8775,1.8798,1.8896,1.8945,1.8906,1.907,1.9054,1.9065,1.9034,1.9041,1.9046,1.9031,1.8916,0,0,0,0,0,1.82,1.8272,1.836,1.8445,1.8478,1.8546,1.8592,1.8622,1.8697,1.8727,1.8791,1.8865,1.8944,1.8996,1.9075,1.918,1.9202,1.9223,1.9227,1.9231,1.9239,1.9295,1.9305,1.9204,1.9204,1.9204,0,0,1.8219,1.8284,1.8327,1.8443,1.85,1.8573,1.857,1.865,1.8706,1.874,1.8839,1.8888,1.8975,1.9078,1.9127,1.9122,1.9271,1.9237,1.924,1.9246,1.9302,1.9311,1.9319,1.9208,1.9207,1.9207,0,0,1.8288,1.8346,1.842,1.8476,1.8561,1.8605,1.8623,1.8714,1.8746,1.8846,1.8872,1.8941,1.9078,1.9136,1.9184,1.9272,1.9289,1.9297,1.9321,1.9375,1.9383,1.939,1.9419,1.9429,1.9305,1.9305,1.9305,0,1.8301,1.8411,1.8458,1.8534,1.8584,1.8615,1.869,1.8744,1.8851,1.8885,1.8877,1.9046,1.9107,1.9222,1.9243,1.9282,1.9304,1.9285,1.9378,1.9386,1.9393,1.9421,1.9432,1.9305,1.9305,1.9305,1.9305,0,1.842,1.8497,1.8547,1.8645,1.8701,1.8777,1.8835,1.8886,1.8911,1.8955,1.9055,1.9129,1.922,1.9251,1.9278,1.937,1.9363,1.9366,1.9351,1.9402,1.9429,1.944,1.9305,1.9305,1.9305,1.9305,0,0,1.8486,1.8605,1.8622,1.8665,1.876,1.882,1.8898,1.8984,1.9025,1.9098,1.9163,1.9277,1.9278,1.9333,1.9366,1.9414,1.9475,1.9411,1.9414,1.9418,1.9578,1.9573,1.9585,1.9487,1.9489,1.9491,1.9569,0,1.8564,1.8699,1.8742,1.8855,1.8925,1.8954,1.9021,1.9087,1.913,1.9197,1.9246,1.9323,1.9322,1.9354,1.9402,1.9457,1.9507,1.9452,1.9548,1.9551,1.9523,1.9599,1.9596,1.9666,1.9581,1.9582,1.9584,0,1.8675,1.8744,1.8863,1.8944,1.8976,1.9035,1.9115,1.9179,1.9253,1.9282,1.934,1.9368,1.945,1.9431,1.9543,1.9505,1.9547,1.9579,1.9583,1.9592,1.9569,1.9608,1.969,1.97,1.9602,1.96,1.9599,0,1.8706,1.883,1.8916,1.8953,1.9051,1.9091,1.9134,1.9206,1.9255,1.9326,1.9358,1.944,1.9484,1.9547,1.9597,1.9578,1.9704,1.969,1.9729,1.9727,1.9753,1.975,1.984,1.9784,1.9784,1.9783,1.9783,0,1.8788,1.8859,1.893,1.8983,1.9063,1.9112,1.919,1.9235,1.9299,1.9361,1.9394,1.9452,1.9515,1.9582,1.9622,1.9708,1.9729,1.9753,1.9763,1.9749,1.9745,1.9776,1.9772,1.9786,1.9786,1.9785,1.9785,0,1.8836,1.8887,1.8982,1.9065,1.9088,1.9143,1.9215,1.9268,1.9311,1.939,1.9411,1.9481,1.956,1.9616,1.9721,1.9747,1.9839,1.9849,1.9812,1.9816,1.9851,1.9846,1.9963,1.9979,1.9913,1.9914,1.9914,0,1.8884,1.8938,1.9026,1.9068,1.911,1.9179,1.9227,1.9277,1.9326,1.9412,1.9454,1.9536,1.9603,1.973,1.979,1.9869,1.988,1.9915,1.9893,1.9876,1.9878,1.9873,1.9877,1.9918,1.9919,1.9919,1.992,0,1.8963,1.8984,1.905,1.9124,1.9179,1.9241,1.9304,1.9337,1.9398,1.9452,1.9531,1.9583,1.9687,1.9767,1.9851,1.9898,1.9918,1.9926,1.9939,1.9925,1.99,1.9911,1.9819,1.9923,1.9923,1.9923,1.9922,1.9922,1.9011,1.9059,1.9126,1.9198,1.9249,1.9306,1.9358,1.9406,1.9473,1.9558,1.9585,1.9667,1.9738,1.9853,1.99,1.9966,1.9964,1.9983,1.9988,1.9991,1.9989,1.989,1.9982,1.9982,1.9982,1.9982,1.9982,0,1.9088,1.9132,1.9198,1.9281,1.9337,1.9349,1.9418,1.9465,1.9536,1.9599,1.9663,1.9754,1.9831,1.9896,1.9976,2.0016,2.0027,2.0035,2.0032,2.0041,1.9988,1.9967,2.0024,2.0024,2.0024,2.0024,2.0024,2.0024,1.9135,1.9216,1.9244,1.9351,1.9395,1.9473,1.9511,1.9563,1.9613,1.9712,1.9774,1.9815,1.9879,1.9963,2.0034,2.0051,2.0078,2.0083,2.0102,2.0051,2.0046,2.0041,2.0022,2.0089,2.0089,2.015,2.015,2.0151]},{"header":{"parameterUnit":"m.s-1","parameterCategory":1,"la1":30.2991,"la2":30.254,"lo1":-89.0895,"lo2":-89.0444,"dy":0.0017,"dx":0.0017,"nx":28,"ny":28,"refTime":"2025-07-18T21:00:00:Z","depth":0,"parameterNumber":3,"parameterNumberName":"V-component_of_WINDS"},"data":[0,0,0,0,0,0,0,0,0,0,0,0,0,0,0,0,0,0,0,0,0,0,0,0,0,0,0,0,0,0,0,0,0,0,0,0,0,0,0,0,0,0,0,0,0,0,0,0,0,0,0,0,0,0,0,0,0,0,1.6908,1.6908,0,1.6939,1.694,1.694,1.6895,1.6893,1.6891,1.689,1.6925,1.6927,1.693,0,0,0,0,0,0,0,0,0,0,0,0,0,1.6811,1.6813,1.6908,1.6908,1.6909,1.6939,1.694,1.694,1.6895,1.6893,1.6891,1.6889,1.6924,1.6927,1.693,0,0,0,0,0,0,0,0,0,0,0,0,0,1.6849,1.6813,1.6908,1.689,1.6888,1.6939,1.694,1.694,1.6895,1.6893,1.689,1.6888,1.6923,1.6927,1.6931,1.7002,0,0,1.6942,1.6943,0,0,0,0,0,0,0,0,1.6846,1.6852,1.6892,1.6891,1.689,1.691,1.6918,1.6961,1.6896,1.6893,1.689,1.6887,1.6922,1.6926,1.6937,1.7003,1.7005,1.6942,1.6944,1.6946,1.6947,0,0,0,0,0,0,0,1.6844,1.6851,1.6921,1.6893,1.6891,1.6881,1.6883,1.6926,1.6921,1.6893,1.689,1.6894,1.6921,1.6934,1.6938,1.7005,1.6942,1.6945,1.6947,1.6949,1.713,1.7133,0,0,0,0,0,0,1.6843,1.6849,1.692,1.6921,1.6862,1.6884,1.6887,1.6906,1.692,1.692,1.6896,1.6892,1.6929,1.6934,1.6939,1.7023,1.6946,1.6949,1.6951,1.7128,1.7131,1.7134,0,0,0,0,0,0,1.6841,1.685,1.6918,1.6884,1.6892,1.6889,1.691,1.6908,1.6921,1.6922,1.6922,1.6909,1.6927,1.6934,1.6986,1.7023,1.6951,1.6954,1.7125,1.7129,1.7132,1.7191,0,0,0,0,0,0,1.6839,1.6849,1.6876,1.6885,1.6894,1.6965,1.6913,1.6911,1.6927,1.6921,1.6935,1.6935,1.6926,1.6981,1.699,1.7027,1.6957,1.7121,1.7127,1.7131,1.7186,1.7197,1.7206,0,0,0,0,0,1.6835,1.6892,1.6878,1.6887,1.6927,1.6967,1.6972,1.6959,1.693,1.6957,1.6958,1.6935,1.7017,1.6986,1.6996,1.7035,1.7119,1.7125,1.7131,1.7182,1.7195,1.7206,0,0,0,0,0,0,1.6889,1.6893,1.6877,1.6939,1.6953,1.6959,1.6993,1.6973,1.6997,1.6991,1.6975,1.6978,1.7034,1.704,1.7005,1.7104,1.7064,1.7072,1.7099,1.7111,1.7121,1.7119,1.696,0,0,0,0,0,1.6908,1.6939,1.6941,1.6995,1.7003,1.6997,1.7013,1.7002,1.7016,1.7022,1.7027,1.7042,1.7072,1.7092,1.7119,1.7186,1.7189,1.7218,1.7228,1.7236,1.7243,1.7279,1.7292,1.7153,1.7153,1.7153,0,0,1.6948,1.6954,1.6975,1.7006,1.7016,1.7049,1.7002,1.7039,1.7064,1.7028,1.7077,1.7081,1.7098,1.7157,1.7184,1.7164,1.7282,1.7243,1.725,1.7253,1.7287,1.73,1.7311,1.7157,1.7156,1.7156,0,0,1.7037,1.7045,1.709,1.71,1.7114,1.711,1.7121,1.713,1.713,1.7179,1.7153,1.7182,1.7233,1.7246,1.7259,1.7351,1.7331,1.736,1.7413,1.7448,1.7459,1.7468,1.7502,1.7514,1.7368,1.7368,1.7368,0,1.7085,1.7133,1.7116,1.7155,1.717,1.7137,1.7184,1.7194,1.7217,1.7229,1.7205,1.7268,1.7276,1.7338,1.7361,1.7372,1.7385,1.7359,1.7458,1.7468,1.7477,1.7508,1.7521,1.7371,1.7371,1.7371,1.737,0,1.7191,1.7225,1.726,1.7282,1.73,1.7343,1.7333,1.7353,1.734,1.7338,1.7388,1.7397,1.7425,1.7438,1.7427,1.7499,1.7486,1.7461,1.742,1.7494,1.7523,1.7535,1.7376,1.7375,1.7374,1.7373,0,0,1.7317,1.7327,1.7341,1.735,1.7363,1.7389,1.7429,1.7455,1.7474,1.749,1.7524,1.7567,1.7543,1.7558,1.7547,1.7578,1.765,1.7549,1.7549,1.7568,1.7731,1.775,1.7764,1.7636,1.7638,1.764,1.7729,0,1.7406,1.7476,1.7461,1.753,1.756,1.7529,1.7565,1.7577,1.7575,1.7602,1.76,1.7631,1.7597,1.7606,1.7635,1.7635,1.7683,1.7629,1.7669,1.767,1.7666,1.778,1.78,1.7884,1.7741,1.7743,1.7744,0,1.752,1.7539,1.7611,1.7617,1.763,1.7662,1.7684,1.7709,1.7722,1.7719,1.7734,1.7717,1.7758,1.7715,1.7771,1.7735,1.775,1.7753,1.7755,1.776,1.7712,1.7787,1.7911,1.7924,1.7762,1.776,1.7759,0,1.7605,1.7649,1.7697,1.7706,1.7715,1.7738,1.7743,1.7753,1.7769,1.7789,1.7799,1.7824,1.7838,1.7858,1.7848,1.7817,1.7906,1.7862,1.7905,1.7905,1.7926,1.7925,1.8054,1.7935,1.7934,1.7934,1.7934,0,1.7707,1.7752,1.7735,1.7765,1.7814,1.7797,1.7846,1.7848,1.7856,1.7886,1.7861,1.789,1.7874,1.7902,1.7894,1.7942,1.7948,1.7947,1.7945,1.795,1.795,1.7961,1.7955,1.7937,1.7937,1.7936,1.7936,0,1.7811,1.7802,1.7852,1.7856,1.7858,1.7894,1.7897,1.7925,1.7921,1.7959,1.7967,1.7961,1.7992,1.7983,1.8017,1.8012,1.8072,1.8062,1.8068,1.8066,1.8109,1.8105,1.8251,1.8269,1.8136,1.8138,1.8139,0,1.7877,1.7911,1.7917,1.7935,1.7941,1.797,1.7986,1.797,1.7988,1.8004,1.803,1.8058,1.808,1.8131,1.813,1.8156,1.8147,1.8196,1.8151,1.8155,1.8148,1.8147,1.815,1.8205,1.8207,1.8208,1.8209,0,1.7996,1.7989,1.8012,1.8034,1.8054,1.8071,1.8085,1.8101,1.8086,1.8107,1.8138,1.8155,1.8188,1.8217,1.824,1.8246,1.8226,1.8223,1.8234,1.8241,1.8243,1.8243,1.8093,1.822,1.8219,1.8218,1.8218,1.8217,1.8083,1.8111,1.812,1.8147,1.8156,1.8169,1.8195,1.8194,1.8219,1.8244,1.8233,1.8268,1.8279,1.8308,1.8316,1.8344,1.8326,1.8342,1.8346,1.8351,1.8357,1.8237,1.8348,1.8348,1.8348,1.8347,1.8347,0,1.8201,1.8204,1.8229,1.8249,1.8271,1.8247,1.8262,1.8281,1.8312,1.8324,1.8345,1.838,1.8407,1.8408,1.8434,1.8456,1.8447,1.8463,1.8462,1.8464,1.8372,1.8359,1.847,1.847,1.847,1.847,1.8469,1.8469,1.8264,1.8311,1.8305,1.8355,1.8358,1.8392,1.8402,1.8414,1.8423,1.8463,1.8485,1.8484,1.8492,1.8517,1.8541,1.8541,1.8552,1.8572,1.8568,1.8482,1.847,1.8458,1.8447,1.8574,1.8574,1.8657,1.8658,1.8659]}]]